Tracking 30995 objects as of 6-Jul-2025
HD Live streaming from Space Station
objects crossing your sky now

YAOGAN-43 O1F

Track YAOGAN-43 O1F now!
10-day predictions
YAOGAN-43 O1F is classified as:


NORAD ID: 60463
Int'l Code: 2024-148F
Perigee: 497.7 km
Apogee: 510.7 km
Inclination: 35.0 °
Period: 94.6 minutes
Semi major axis: 6875 km
RCS: Unknown
Launch date: August 16, 2024
Source: People's Republic of China (PRC)
Launch site: Xichang Space Center, China (XSC)
Your satellite tracking list
Your tracking list is empty




NASA's NSSDC Master Catalog

Two Line Element Set (TLE):
1 60463U 24148F   25186.41231816  .00006666  00000-0  27832-3 0  9995
2 60463  34.9961 183.6247 0009431 307.9010  52.0851 15.22919669 49230
Source of the keplerian elements: AFSPC